"Pseudo-MPEC" for P12pBjI

Created 2026 Sep 4 22:35:06 UT using Find_Orb

Click here for an explanation of pseudo-MPECs

 
 Astrometry: 
     P12pBjI 0C2026 08 08.56606900 24 35.503-10 45 23.00   ~94DK 21.31wXNEOCPF52
     P12pBjI 0C2026 08 08.57697800 24 36.042-10 45 29.63   ~94DK 21.55wXNEOCPF52
     P12pBjI 0C2026 08 08.58782100 24 36.582-10 45 35.73   ~94DK 21.39wXNEOCPF52
     P12pBjI 0C2026 08 08.59865000 24 37.119-10 45 42.22   ~94DK 21.27wXNEOCPF52
     P12pBjI*0C2026 09 04.46495800 37 22.414-16 23 35.82   ~94Co 21.04wXNEOCPF51
     P12pBjI 0C2026 09 04.47555100 37 22.395-16 23 44.76   ~94Co 21.04wXNEOCPF51
     P12pBjI 0C2026 09 04.48631100 37 22.363-16 23 53.78   ~94Co 21.02wXNEOCPF51
     P12pBjI 0C2026 09 04.49696500 37 22.360-16 24 02.72   ~94Co 21.01wXNEOCPF51
     P12pBjI 0C2026 09 04.56324300 37 22.236-16 24 58.01   ~94MZ 20.88GVNEOCPF51
     P12pBjI 0C2026 09 04.56389000 37 22.237-16 24 58.47   ~94MZ 20.77GVNEOCPF51

Station data:
(F51) Pan-STARRS 1, Haleakala  (N20.707234 W156.255910)  US/Hawaii.
   Observers J. Herman, T. Lowe, P. Minguez, A. Schultz, I. Smith. Measurers
   K. Chambers, T. de Boer, J. Fairlamb, H. Gao, M. Huber, C.-C. Lin, E.
   Magnier, Y. Ramanjooloo, R. Wainscoat, R. Weryk. 1.8-m Ritchey-Chrétien +
   CCD.
(F52) Pan-STARRS 2, Haleakala  (N20.707382 W156.255910)  US/Hawaii.
   Observers J. Herman, T. Lowe, P. Minguez, A. Schultz, I. Smith. Measurers
   K. Chambers, T. de Boer, J. Fairlamb, H. Gao, M. Huber, C.-C. Lin, E.
   Magnier, Y. Ramanjooloo, R. Wainscoat, R. Weryk. 1.8-m Ritchey-Chrétien +
   CCD.

Orbital elements:  P12pBjI
   Perihelion 2026 Sep 22.425338 +/- 2.09 TT = 10:12:29.2 (JD 2461305.925338)
Epoch 2026 Sep  4.0 TT = JDT 2461287.5   Earth MOID: 0.7740      AutoNEOCP
M 356.031395637 +/- 0.48            (J2000 ecliptic)
n   0.215388412 +/- 0.00315         Peri.  235.936947 +/- 1.1
a   2.756266196 +/- 0.0268          Node   123.804909 +/- 0.19
e   0.36508539 +/- 0.00429          Incl.   11.491935 +/- 0.06
P   4.57595                H 19.24  G  0.15   U  8.9
q 1.749993666 +/- 0.00524    Q 3.762538725 +/- 0.0484
From 10 observations 2026 Aug. 8-Sept. 4; mean residual 0".06
Residuals in arcseconds: 
260808 F52  .00   .03+    260904 F51  .05+  .02+    260904 F51  .01-  .03-    
260808 F52  .03-  .17-    260904 F51  .03+  .02-    260904 F51  .02+  .05+    
260808 F52  .01+  .12+    260904 F51  .16-  .00     
260808 F52  .01+  .01+    260904 F51  .07+  .01-    

Ephemerides (geocentric):
Date (UTC) HH   RA             Dec           delta  r     elong  mag " sig PA
---- --------  ------------   ------------  ------ ------ -----  --- --------
2026 09 04 23  00 37 23.363   -16 30 21.85  .79623 1.7554 153.0 20.8 .844  87
2026 09 05 00  00 37 23.439   -16 30 56.67  .79612 1.7553 153.0 20.8 .913  87
2026 09 05 01  00 37 23.511   -16 31 31.48  .79601 1.7553 153.0 20.8 .982  87
2026 09 05 02  00 37 23.580   -16 32 06.28  .79590 1.7553 153.1 20.8 1.05  87
2026 09 05 03  00 37 23.646   -16 32 41.08  .79579 1.7553 153.1 20.8 1.12  87
2026 09 05 04  00 37 23.708   -16 33 15.88  .79568 1.7552 153.1 20.8 1.19  87
2026 09 05 05  00 37 23.768   -16 33 50.67  .79557 1.7552 153.1 20.8 1.26  87
2026 09 05 06  00 37 23.824   -16 34 25.45  .79546 1.7552 153.2 20.8 1.33  86
2026 09 05 07  00 37 23.877   -16 35 00.24  .79535 1.7552 153.2 20.8 1.40  86
2026 09 05 08  00 37 23.927   -16 35 35.01  .79524 1.7551 153.2 20.8 1.47  86
2026 09 05 09  00 37 23.973   -16 36 09.78  .79513 1.7551 153.2 20.8 1.54  86
2026 09 05 10  00 37 24.017   -16 36 44.55  .79503 1.7551 153.3 20.8 1.61  86
2026 09 05 11  00 37 24.057   -16 37 19.31  .79492 1.7551 153.3 20.8 1.68  86
2026 09 05 12  00 37 24.094   -16 37 54.06  .79481 1.7550 153.3 20.8 1.75  86
2026 09 05 13  00 37 24.128   -16 38 28.81  .79470 1.7550 153.3 20.8 1.83  86
2026 09 05 14  00 37 24.159   -16 39 03.56  .79460 1.7550 153.4 20.8 1.90  86
2026 09 05 15  00 37 24.186   -16 39 38.30  .79449 1.7550 153.4 20.8 1.97  86
2026 09 05 16  00 37 24.210   -16 40 13.03  .79439 1.7549 153.4 20.8 2.04  86
2026 09 05 17  00 37 24.231   -16 40 47.76  .79428 1.7549 153.4 20.8 2.11  86
2026 09 05 18  00 37 24.249   -16 41 22.48  .79417 1.7549 153.5 20.8 2.19  86
2026 09 05 19  00 37 24.264   -16 41 57.20  .79407 1.7549 153.5 20.8 2.26  86
2026 09 05 20  00 37 24.276   -16 42 31.91  .79396 1.7548 153.5 20.8 2.33  86
2026 09 05 21  00 37 24.284   -16 43 06.61  .79386 1.7548 153.5 20.8 2.40  86
2026 09 05 22  00 37 24.289   -16 43 41.31  .79376 1.7548 153.5 20.8 2.48  86
2026 09 05 23  00 37 24.292   -16 44 16.00  .79365 1.7548 153.6 20.8 2.55  86
2026 09 06 00  00 37 24.291   -16 44 50.69  .79355 1.7547 153.6 20.8 2.62  86
2026 09 06 01  00 37 24.286   -16 45 25.36  .79345 1.7547 153.6 20.8 2.70  86
2026 09 06 02  00 37 24.279   -16 46 00.04  .79334 1.7547 153.6 20.8 2.77  86
2026 09 06 03  00 37 24.268   -16 46 34.70  .79324 1.7547 153.7 20.8 2.85  86
2026 09 06 04  00 37 24.255   -16 47 09.36  .79314 1.7546 153.7 20.8 2.92  86
2026 09 06 05  00 37 24.238   -16 47 44.01  .79304 1.7546 153.7 20.8 2.99  86
2026 09 06 06  00 37 24.218   -16 48 18.66  .79293 1.7546 153.7 20.8 3.07  86
2026 09 06 07  00 37 24.195   -16 48 53.30  .79283 1.7546 153.8 20.8 3.14  86
2026 09 06 08  00 37 24.169   -16 49 27.93  .79273 1.7546 153.8 20.8 3.22  86
2026 09 06 09  00 37 24.139   -16 50 02.55  .79263 1.7545 153.8 20.8 3.29  86
2026 09 06 10  00 37 24.107   -16 50 37.17  .79253 1.7545 153.8 20.8 3.37  86
2026 09 06 11  00 37 24.071   -16 51 11.78  .79243 1.7545 153.9 20.8 3.44  86
2026 09 06 12  00 37 24.032   -16 51 46.38  .79233 1.7545 153.9 20.8 3.52  86
2026 09 06 13  00 37 23.990   -16 52 20.98  .79223 1.7544 153.9 20.8 3.60  86
2026 09 06 14  00 37 23.945   -16 52 55.57  .79213 1.7544 153.9 20.8 3.67  86
2026 09 06 15  00 37 23.897   -16 53 30.15  .79203 1.7544 154.0 20.8 3.75  86
2026 09 06 16  00 37 23.846   -16 54 04.72  .79193 1.7544 154.0 20.8 3.83  86
2026 09 06 17  00 37 23.792   -16 54 39.28  .79184 1.7543 154.0 20.8 3.90  86
2026 09 06 18  00 37 23.734   -16 55 13.84  .79174 1.7543 154.0 20.8 3.98  86
2026 09 06 19  00 37 23.673   -16 55 48.39  .79164 1.7543 154.1 20.8 4.06  86
2026 09 06 20  00 37 23.610   -16 56 22.93  .79154 1.7543 154.1 20.8 4.13  86
2026 09 06 21  00 37 23.543   -16 56 57.46  .79145 1.7543 154.1 20.8 4.21  86
2026 09 06 22  00 37 23.473   -16 57 31.99  .79135 1.7542 154.1 20.8 4.29  86